Date String (YYYY-MM-DD hh:mm:ss) UTC,Instrument flags,absolute air pressure of the measurement (hPa),sample flow rate (lpm),inlet stack bypass flow (lpm),air temperature of the measurement (°C),ambient temperature measured by the external sensor (°C),aerosol sample conditioner tube jacket temperature (°C),OPC LED temperature (°C),internal box temperature (°C),relative humidity of the measurement (%),span deviation,mass concentration of particles derived from Lorenz-Mie calculation of OPC scattering (μg/m³),mass concentration of particles derived from Lorenz-Mie calculation of OPC scattering (μg/m³),mass concentration of particles derived from Lorenz-Mie calculation of OPC scattering (μg/m³)
DateTimeUTC,F1_M11,P_M11,Q1_M11,Q2_M11,T1_M11,T2_M11,T3_M11,T4_M11,T5_M11,U1_M11,ZSPAN_M11,X0_M11,X2_M11,X1_M11
2023-10-14 06:00:00,SystemResetWarning,0836.5,5.00,000.00,027.6,026.1,000.0,036.1,029.2,14.1,0000.0,0007.79,0003.50,0003.25
2023-10-14 06:01:00,SystemResetWarning,0836.5,5.00,000.00,027.6,026.1,000.0,036.1,029.2,14.1,0000.0,0007.49,0003.47,0003.24
2023-10-14 06:02:00,SystemResetWarning,0836.5,5.00,000.00,027.6,026.1,000.0,036.1,029.2,13.9,0000.0,0007.44,0003.43,0003.22
2023-10-14 06:03:00,SystemResetWarning,0836.4,5.00,000.00,027.6,026.0,000.0,036.1,029.2,13.6,0000.0,0007.46,0003.44,0003.22
2023-10-14 06:04:00,SystemResetWarning,0836.5,4.99,000.00,027.5,026.0,000.0,036.1,029.1,13.7,0000.0,0007.41,0003.44,0003.22
2023-10-14 06:05:00,SystemResetWarning,0836.5,5.00,000.00,027.5,026.0,000.0,036.0,029.1,13.8,0000.0,0007.03,0003.40,0003.21
2023-10-14 06:06:00,SystemResetWarning,0836.5,4.99,000.00,027.5,026.0,000.0,036.0,029.1,13.6,0000.0,0006.95,0003.38,0003.21
2023-10-14 06:07:00,SystemResetWarning,0836.5,5.00,000.00,027.5,026.0,000.0,036.0,029.1,13.6,0000.0,0006.32,0003.38,0003.20
2023-10-14 06:08:00,SystemResetWarning,0836.5,5.01,000.00,027.5,026.0,000.0,036.0,029.1,13.6,0000.0,0005.85,0003.39,0003.20
2023-10-14 06:09:00,SystemResetWarning,0836.5,5.00,000.00,027.5,025.9,000.0,036.0,029.1,13.6,0000.0,0005.27,0003.40,0003.22
2023-10-14 06:10:00,SystemResetWarning,0836.5,4.99,000.00,027.5,025.9,000.0,036.0,029.1,13.7,0000.0,0004.52,0003.40,0003.22
2023-10-14 06:11:00,SystemResetWarning,0836.5,5.00,000.00,027.5,025.9,000.0,036.0,029.0,13.8,0000.0,0004.49,0003.40,0003.22
2023-10-14 06:12:00,SystemResetWarning,0836.5,5.00,000.00,027.5,025.9,000.0,036.0,029.0,13.8,0000.0,0004.54,0003.41,0003.22
2023-10-14 06:13:00,SystemResetWarning,0836.5,5.00,000.00,027.4,025.9,000.0,036.0,029.0,13.6,0000.0,0004.58,0003.42,0003.23
2023-10-14 06:14:00,SystemResetWarning,0836.5,5.00,000.00,027.4,025.9,000.0,036.0,029.0,13.7,0000.0,0004.65,0003.42,0003.24
2023-10-14 06:15:00,SystemResetWarning,0836.5,5.00,000.00,027.4,025.9,000.0,036.0,029.0,13.6,0000.0,0004.81,0003.42,0003.24
2023-10-14 06:16:00,SystemResetWarning,0836.5,5.00,000.00,027.4,025.9,000.0,036.0,029.0,13.5,0000.0,0005.10,0003.45,0003.25
2023-10-14 06:17:00,SystemResetWarning,0836.5,5.01,000.00,027.4,025.8,000.0,036.0,029.0,13.6,0000.0,0005.15,0003.47,0003.26
2023-10-14 06:18:00,SystemResetWarning,0836.5,5.01,000.00,027.4,025.8,000.0,035.9,029.0,13.5,0000.0,0005.28,0003.48,0003.26
2023-10-14 06:19:00,SystemResetWarning,0836.5,5.00,000.00,027.4,025.9,000.0,035.9,029.0,13.7,0000.0,0005.37,0003.48,0003.26
2023-10-14 06:20:00,SystemResetWarning,0836.5,5.00,000.00,027.4,025.9,000.0,035.9,029.0,13.7,0000.0,0005.31,0003.47,0003.25
2023-10-14 06:21:00,SystemResetWarning,0836.5,4.99,000.00,027.4,025.9,000.0,035.9,029.0,13.6,0000.0,0005.29,0003.47,0003.26
2023-10-14 06:22:00,SystemResetWarning,0836.5,5.00,000.00,027.4,025.9,000.0,035.9,029.0,13.7,0000.0,0005.21,0003.46,0003.26
2023-10-14 06:23:00,SystemResetWarning,0836.5,5.00,000.00,027.4,025.9,000.0,035.9,029.0,13.7,0000.0,0005.23,0003.48,0003.29
2023-10-14 06:24:00,SystemResetWarning,0836.5,5.00,000.00,027.4,025.9,000.0,035.9,028.9,13.8,0000.0,0005.30,0003.49,0003.29
2023-10-14 06:25:00,SystemResetWarning,0836.5,5.00,000.00,027.4,025.9,000.0,035.9,028.9,13.7,0000.0,0005.32,0003.50,0003.30
2023-10-14 06:26:00,SystemResetWarning,0836.6,5.00,000.00,027.4,025.9,000.0,035.9,028.9,13.8,0000.0,0005.29,0003.54,0003.33
2023-10-14 06:27:00,SystemResetWarning,0836.6,5.00,000.00,027.4,025.9,000.0,035.9,028.9,13.6,0000.0,0005.16,0003.55,0003.33
2023-10-14 06:28:00,SystemResetWarning,0836.6,5.01,000.00,027.4,025.9,000.0,035.9,028.9,13.5,0000.0,0005.28,0003.58,0003.34
2023-10-14 06:29:00,SystemResetWarning,0836.5,5.00,000.00,027.4,025.9,000.0,035.9,029.0,13.5,0000.0,0005.26,0003.60,0003.34
2023-10-14 06:30:00,SystemResetWarning,0836.5,5.00,000.00,027.4,025.9,000.0,035.9,029.0,13.6,0000.0,0005.17,0003.62,0003.34
2023-10-14 06:31:00,SystemResetWarning,0836.5,5.00,000.00,027.3,025.9,000.0,035.8,028.9,13.6,0000.0,0005.19,0003.61,0003.33
2023-10-14 06:32:00,SystemResetWarning,0836.5,5.00,000.00,027.3,025.9,000.0,035.8,028.9,13.5,0000.0,0005.42,0003.64,0003.33
2023-10-14 06:33:00,SystemResetWarning,0836.5,5.00,000.00,027.3,025.9,000.0,035.8,028.9,13.5,0000.0,0005.51,0003.65,0003.32
2023-10-14 06:34:00,SystemResetWarning,0836.5,5.00,000.00,027.3,025.9,000.0,035.8,028.9,13.4,0000.0,0005.69,0003.65,0003.33
2023-10-14 06:35:00,SystemResetWarning,0836.5,5.00,000.00,027.3,025.9,000.0,035.8,029.0,13.4,0000.0,0005.73,0003.65,0003.32
2023-10-14 06:36:00,SystemResetWarning,0836.5,5.00,000.00,027.3,025.9,000.0,035.8,028.9,13.5,0000.0,0005.57,0003.62,0003.31
2023-10-14 06:37:00,SystemResetWarning,0836.6,4.99,000.00,027.3,025.8,000.0,035.8,028.9,13.5,0000.0,0005.51,0003.59,0003.27
2023-10-14 06:38:00,SystemResetWarning,0836.7,5.00,000.00,027.3,025.8,000.0,035.8,028.9,13.3,0000.0,0005.35,0003.55,0003.25
2023-10-14 06:39:00,SystemResetWarning,0836.6,5.00,000.00,027.3,025.8,000.0,035.8,028.9,13.4,0000.0,0005.36,0003.55,0003.23
2023-10-14 06:40:00,SystemResetWarning,0836.6,5.00,000.00,027.3,025.8,000.0,035.8,028.9,13.4,0000.0,0005.44,0003.52,0003.21
2023-10-14 06:41:00,SystemResetWarning,0836.6,5.00,000.00,027.3,025.8,000.0,035.8,028.8,13.4,0000.0,0005.44,0003.49,0003.21
2023-10-14 06:42:00,SystemResetWarning,0836.6,5.00,000.00,027.3,025.8,000.0,035.8,028.8,13.6,0000.0,0005.51,0003.51,0003.23
2023-10-14 06:43:00,SystemResetWarning,0836.6,5.00,000.00,027.3,025.8,000.0,035.8,028.9,13.5,0000.0,0006.38,0003.52,0003.25
2023-10-14 06:44:00,SystemResetWarning,0836.5,5.00,000.00,027.2,025.8,000.0,035.8,028.8,13.5,0000.0,0006.57,0003.51,0003.26
2023-10-14 06:45:00,SystemResetWarning,0836.5,5.00,000.00,027.2,025.7,000.0,035.8,028.8,13.5,0000.0,0006.36,0003.49,0003.25
2023-10-14 06:46:00,SystemResetWarning,0836.5,5.00,000.00,027.2,025.7,000.0,035.8,028.8,13.5,0000.0,0006.33,0003.49,0003.25
2023-10-14 06:47:00,SystemResetWarning,0836.5,5.00,000.00,027.2,025.7,000.0,035.8,028.8,13.5,0000.0,0006.42,0003.50,0003.26
2023-10-14 06:48:00,SystemResetWarning,0836.5,4.99,000.00,027.2,025.7,000.0,035.7,028.8,13.5,0000.0,0006.60,0003.53,0003.27
2023-10-14 06:49:00,SystemResetWarning,0836.5,5.00,000.00,027.2,025.7,000.0,035.7,028.8,13.5,0000.0,0006.60,0003.53,0003.28
2023-10-14 06:50:00,SystemResetWarning,0836.5,5.00,000.00,027.2,025.7,000.0,035.7,028.8,13.4,0000.0,0006.72,0003.54,0003.27
2023-10-14 06:51:00,SystemResetWarning,0836.5,5.00,000.00,027.2,025.7,000.0,035.7,028.8,13.4,0000.0,0006.79,0003.55,0003.27
2023-10-14 06:52:00,SystemResetWarning,0836.5,5.00,000.00,027.2,025.8,000.0,035.7,028.8,13.4,0000.0,0006.71,0003.54,0003.26
2023-10-14 06:53:00,SystemResetWarning,0836.5,5.00,000.00,027.2,025.8,000.0,035.7,028.9,13.4,0000.0,0006.62,0003.51,0003.23
2023-10-14 06:54:00,SystemResetWarning,0836.5,5.00,000.00,027.2,025.8,000.0,035.7,028.8,13.4,0000.0,0005.61,0003.47,0003.20
2023-10-14 06:55:00,SystemResetWarning,0836.6,5.00,000.00,027.2,025.7,000.0,035.7,028.8,13.4,0000.0,0005.30,0003.47,0003.19
2023-10-14 06:56:00,SystemResetWarning,0836.5,5.00,000.00,027.2,025.7,000.0,035.7,028.8,13.5,0000.0,0005.48,0003.48,0003.19
2023-10-14 06:57:00,SystemResetWarning,0836.5,5.00,000.00,027.2,025.7,000.0,035.7,028.8,13.5,0000.0,0005.47,0003.46,0003.17
2023-10-14 06:58:00,SystemResetWarning,0836.5,4.99,000.00,027.2,025.7,000.0,035.7,028.8,13.5,0000.0,0005.33,0003.44,0003.16
2023-10-14 06:59:00,SystemResetWarning,0836.5,5.00,000.00,027.2,025.7,000.0,035.7,028.8,13.5,0000.0,0005.17,0003.40,0003.15
